Puerto Vallarta, Mexico

2:26 PM CST on December 11, 2018 (GMT -0600)
Lic Gustavo Diaz Ordaz International

Weather History for MMPR - October, 2018

Change the Weather History Date:

Friday, October 12, 2018

  Actual Average Record
Temperature  
Mean Temperature 80 °F -  
Max Temperature 86 °F 86 °F 91 °F (2000)
Min Temperature 75 °F 71 °F 73 °F (2005)
Cooling Degree Days 16    
Growing Degree Days 30 (Base 50)    
Moisture  
Dew Point 76 °F    
Average Humidity 87    
Maximum Humidity 100    
Minimum Humidity 66    
Precipitation  
Precipitation 0.00 in - - ()
Sea Level Pressure  
Sea Level Pressure 29.87 in    
Wind  
Wind Speed 4 mph ()    
Max Wind Speed 12 mph    
Max Gust Speed -    
Visibility 13.8 miles    
Events      
Averages and records for this station are not official NWS values.
T = Trace of Precipitation, MM = Missing Value Source: Averaged Metar Reports

Daily Weather History Graph

Daily Weather History Graph

Search for Another Location

Airport or City:

Astronomy

Oct. 12, 2018 Rise Set
Actual Time 7:55 AM CDT 7:39 PM CDT
Civil Twilight 7:33 AM CDT 8:01 PM CDT
Nautical Twilight 7:07 AM CDT 8:27 PM CDT
Astronomical Twilight 6:41 AM CDT 8:52 PM CDT
Moon 11:11 AM CDT (10/12) 10:40 PM CDT (10/12)
Length of Visible Light 12h 28m
Length of Day
11h 44m
Waxing Crescent, 14% of the Moon is Illuminated
Oct 12
Waxing Crescent
Oct 16
First Quarter
Oct 24
Full
Oct 31
Last Quarter
Nov 7
New

Hourly Weather History & Observations

Time (CDT) Temp. Heat Index Dew Point Humidity Pressure Visibility Wind Dir Wind Speed Gust Speed Precip Events Conditions
12:46 AM 78.8 °F - 78.8 °F 100% 29.91 in 12.0 mi ENE 2.3 mph - N/A   Scattered Clouds
1:45 AM 78.8 °F - 78.8 °F 100% 29.91 in 12.0 mi North 2.3 mph - N/A   Partly Cloudy
2:50 AM 77.0 °F - 77.0 °F 100% 29.91 in 12.0 mi NNE 4.6 mph - N/A   Partly Cloudy
3:46 AM 77.0 °F - 77.0 °F 100% 29.88 in 12.0 mi NE 5.8 mph - N/A   Partly Cloudy
4:44 AM 75.2 °F - 75.2 °F 100% 29.87 in 12.0 mi NNE 2.3 mph - N/A   Scattered Clouds
5:45 AM 77.0 °F - 77.0 °F 100% 29.87 in 12.0 mi NE 3.5 mph - N/A   Scattered Clouds
6:47 AM 75.2 °F - 75.2 °F 100% 29.87 in 12.0 mi NNE 4.6 mph - N/A   Overcast
7:43 AM 75.2 °F - 75.2 °F 100% 29.89 in 15.0 mi NNE 4.6 mph - N/A   Overcast
8:43 AM 75.2 °F - 75.2 °F 100% 29.89 in 15.0 mi NE 4.6 mph - N/A   Overcast
9:45 AM 78.8 °F - 78.8 °F 100% 29.90 in 15.0 mi North 4.6 mph - N/A   Mostly Cloudy
10:45 AM 82.4 °F 88.2 °F 73.4 °F 74% 29.92 in 15.0 mi NE 5.8 mph - N/A   Scattered Clouds
11:44 AM 86.0 °F 93.4 °F 73.4 °F 66% 29.92 in 15.0 mi Calm Calm - N/A   Mostly Cloudy
12:47 PM 86.0 °F 93.4 °F 73.4 °F 66% 29.90 in 15.0 mi SSW 6.9 mph - N/A   Mostly Cloudy
1:45 PM 84.2 °F 90.9 °F 73.4 °F 70% 29.87 in 15.0 mi SSW 8.1 mph - N/A   Mostly Cloudy
2:44 PM 86.0 °F 95.1 °F 75.2 °F 70% 29.85 in 15.0 mi WSW 6.9 mph - N/A   Partly Cloudy
3:48 PM 84.2 °F 92.3 °F 75.2 °F 74% 29.83 in 15.0 mi WSW 11.5 mph - N/A   Overcast
4:48 PM 84.2 °F 92.3 °F 75.2 °F 74% 29.81 in 15.0 mi WSW 9.2 mph - N/A   Overcast
5:46 PM 86.0 °F 95.1 °F 75.2 °F 70% 29.81 in 15.0 mi SSW 4.6 mph - N/A   Mostly Cloudy
6:45 PM 84.2 °F 92.3 °F 75.2 °F 74% 29.81 in 15.0 mi SW 5.8 mph - N/A   Partly Cloudy
7:48 PM 84.2 °F 94.1 °F 77.0 °F 79% 29.81 in 15.0 mi South 2.3 mph - N/A   Overcast
8:46 PM 82.4 °F 90.9 °F 77.0 °F 84% 29.85 in 15.0 mi NNW 4.6 mph - N/A   Mostly Cloudy
9:45 PM 80.6 °F 87.1 °F 77.0 °F 89% 29.85 in 12.0 mi Calm Calm - N/A   Clear
10:44 PM 80.6 °F 87.1 °F 77.0 °F 89% 29.86 in 12.0 mi NNE 4.6 mph - N/A   Clear
11:44 PM 78.8 °F - 78.8 °F 100% 29.86 in 12.0 mi North 6.9 mph - N/A   Clear